Location: Remedello Sotto
(45.2500°N, 10.3667°E)
Time: 18:30:21
(UTC+00:00)

Cosmos 2278 Rocket - Visible Passes

Search period start: 01 October 2023 00:00
Search period end: 11 October 2023 00:00
Orbit: 839 x 846 km, 71.0° (Epoch: 01 October)

Date Brightness Start Highest point End Pass type
(mag) Time Alt. Az. Time Alt. Az. Time Alt. Az.
01 Oct 2.9 17:33:06 10° NNW 17:38:20 36° NE 17:43:31 10° ESE visible
01 Oct 3.4 19:17:12 10° NW 19:22:25 39° WSW 19:26:23 16° SSW visible
02 Oct 2.9 17:18:27 10° NNW 17:23:37 35° NE 17:28:46 10° ESE visible
02 Oct 3.4 19:02:30 10° NW 19:07:45 40° WSW 19:12:59 10° S visible
03 Oct 3.3 18:47:46 10° NW 18:53:06 42° WSW 18:58:22 10° S visible
04 Oct 3.3 18:33:05 10° NW 18:38:26 44° WSW 18:43:44 10° S visible
05 Oct 3.3 18:18:22 10° NW 18:23:46 46° WSW 18:29:07 10° S visible
06 Oct 3.2 18:03:40 10° NW 18:09:05 48° WSW 18:14:29 10° S visible
07 Oct 3.2 17:48:57 10° NW 17:54:25 50° WSW 17:59:51 10° S visible
08 Oct 3.1 17:34:16 10° NW 17:39:45 53° WSW 17:45:13 10° S visible
09 Oct 3.1 17:19:33 10° NNW 17:25:05 55° WSW 17:30:34 10° S visible
10 Oct 3.0 17:04:51 10° NNW 17:10:25 58° WSW 17:15:56 10° S visible
